Location: Unspecified
(0.0000°N, 0.0000°E)
Time: 12:49:53
(UTC+01:00)

Cosmos 2369 Rocket - Visible Passes

Search period start: 08 December 2016 00:00
Search period end: 18 December 2016 00:00
Orbit: 827 x 854 km, 71.0° (Epoch: 08 December)

Date Brightness Start Highest point End Pass type
(mag) Time Alt. Az. Time Alt. Az. Time Alt. Az.
08 Dec 5.1 06:22:39 10° NE 06:24:30 12° ENE 06:26:22 10° E visible
08 Dec 4.9 20:50:22 10° W 20:52:28 12° WNW 20:54:34 10° NW visible
09 Dec 5.2 06:08:10 10° ENE 06:09:11 10° ENE 06:10:13 10° E visible
09 Dec 4.8 20:34:33 10° WSW 20:37:09 13° WNW 20:39:44 10° NW visible
10 Dec 4.8 20:18:51 10° WSW 20:21:49 15° WNW 20:24:48 10° NW visible
11 Dec 4.8 20:03:13 10° WSW 20:06:30 16° WNW 20:09:48 10° NW visible
12 Dec 4.7 19:47:37 10° WSW 19:51:11 17° WNW 19:54:46 10° NW visible
13 Dec 4.7 19:32:02 10° WSW 19:35:52 19° WNW 19:39:42 10° NNW visible
14 Dec 4.7 19:16:30 10° WSW 19:20:33 20° WNW 19:24:36 10° NNW visible
15 Dec 2.2 06:15:25 10° NNW 06:21:04 81° WSW 06:26:42 10° SSE visible
16 Dec 2.2 06:00:06 10° NNW 06:05:46 87° WSW 06:11:24 10° SSE visible
17 Dec 2.2 05:44:48 10° NNW 05:50:27 86° ENE 05:56:05 10° SSE visible
